Location: Famechon
(49.7599°N, 2.0615°E)
Time: 21:11:00
(UTC+00:00)

COSMO-SKYMED 1 - Pass Details

Date: 03 February 2023
Orbit: 621 x 623 km, 97.9° (Epoch: 21 March)

Event Time Altitude Azimuth Distance (km) Brightness Sun altitude
Rises 18:41:34 0° 8° (N) 2,920 5.9 -18.2°
Reaches altitude 10° 18:43:50 10° 2° (N) 2,008 5.1 -18.6°
Maximum altitude 18:47:59 44° 291° (WNW) 868 3.7 -19.3°
Drops below altitude 10° 18:52:06 10° 219° (SW) 1,992 5.7 -19.9°
Sets 18:54:20 0° 213° (SSW) 2,893 6.5 -20.3°
